Hourly Data Report for March 09, 2021

KUGAARUK CLIMATE
NUNAVUT
Current Station Operator: ECCC - MSC

68°32'15.060" N
89°47'47.020" W
15.80 m
2303094
71407
NBB

Download Data

Hourly Data (March 2021)
Hourly Data Report for March 9, 2021
TIME
LST
Temp Definition
°C
Dew Point Definition
°C
Rel Hum Definition
%
Precip. Amount Definition
mm

Wind Dir Definition
10's deg

Wind Spd Definition
km/h
Visibility Definition
km
Stn Press Definition
kPa
Hmdx Definition


Wind Chill Definition


Weather Definition


00:00 -22.4 -25.2 78 0.0 22 27   99.67   -35 LegendNANA
01:00 -22.5 -25.3 78 0.0 23 27   99.65   -35 LegendNANA
02:00 -23.1 -25.9 78 0.0 23 35   99.63   -37 LegendNANA
03:00 -23.0 -25.9 77 0.0 23 38   99.63   -38 LegendNANA
04:00 -22.7 -25.6 77 0.0 22 27   99.68   -36 LegendNANA
05:00 -22.7 -25.6 77 0.0 23 28   99.69   -36 LegendNANA
06:00 -22.5 -25.6 76 0.0 22 20   99.69   -34 LegendNANA
07:00 -22.3 -25.3 76 0.0 22 17   99.69   -33 LegendNANA
08:00 -21.4 -24.5 76 0.0 25 15   99.70   -31 LegendNANA
09:00 -21.1 -24.1 76 0.2 25 20   99.70   -32 LegendNANA
10:00 -20.5 -23.6 76 0.0 26 13   99.72   -29 LegendNANA
11:00 -20.5 -24.2 73 0.0 28 14   99.73   -29 LegendNANA
12:00 -21.1 -25.4 68 0.5 23 11   99.76   -29 LegendNANA
13:00 -20.9 -24.2 75 0.0 23 12   99.78   -29 LegendNANA
14:00 -20.3 -23.8 74 0.0 29 11   99.82   -28 LegendNANA
15:00 -20.9 -24.4 73 0.0 30 17   99.86   -31 LegendNANA
16:00 -23.7 -26.9 75 0.0 24 19   99.90   -35 LegendNANA
17:00 -24.9 -27.9 76 0.0 24 23   99.94   -37 LegendNANA
18:00 -24.5 -27.4 77 0.0 24 18   99.96   -36 LegendNANA
19:00 -23.6 -26.6 76 0.0 23 16   99.97   -34 LegendNANA
20:00 -23.3 -26.3 76 0.0 23 14   99.98   -33 LegendNANA
21:00 -22.9 -25.9 76 0.0 23 11   99.98   -31 LegendNANA
22:00 -23.4 -26.4 77 0.0 25 12   100.01   -32 LegendNANA
23:00 -24.4 -27.3 77 0.0 24 15   100.03   -35 LegendNANA

Notes on Data Quality.

Legend

  • E = Estimated
  • M = Missing
  • NA = Not Available*
  • [empty] = Indicates an unobserved value
Date modified: